Location: ??
(34.9170°N, 135.5016°E)
Time: 04:44:06
(UTC+00:00)

Explorer 7 - Pass Details

Date: 07 March 2021
Orbit: 484 x 677 km, 50.3° (Epoch: 14 April)

Event Time Altitude Azimuth Distance (km) Brightness Sun altitude
Rises 05:18:02 0° 287° (WNW) 2,941 10.8 39.7°
Reaches altitude 10° 05:21:31 10° 312° (NW) 1,992 9.8 39.2°
Maximum altitude 05:23:53 14° 344° (NNW) 1,719 9.2 38.9°
Drops below altitude 10° 05:26:12 10° 16° (NNE) 1,930 9.3 38.5°
Sets 05:29:29 0° 42° (NE) 2,782 9.9 38.0°
